KUIPER-00046

Last updated on Thu Jul 03 2025 00:02:08 GMT+0000 (Coordinated Universal Time)

1 64506U 25134G 25183.58335648 -.00000534 00000+0 -44611-5 0 9991 2 64506 51.8669 287.0312 0010423 146.1242 278.7671 15.34191643 1300
UTC large
Height (km)
Speed (km/s)
/
Latitude / Longitude
Inclination (degrees)
Orbital Period (minutes)
Azimuth
Elevation
Range (km)
Doppler Factor

Next 0 passes for location: London (51.5072 / 0.1276)

Sorry there are no passes over London.